| time (UTC) | temp F | wind direction | speed knots | gust knots | rain 1hr in | rain 24hr in | rain mn in | humidity % | barometer mb |
| 20260505054305 | 55 | 165 | 1.7 | 5.2 | 0.00 | 0.00 | 0.00 | 67 | 1007.2 |
| 20260505053805 | 55 | 189 | 2.6 | 4.3 | 0.00 | 0.00 | 0.00 | 67 | 1007.2 |
| 20260505052804 | 56 | 162 | 0.9 | 4.3 | 0.00 | 0.00 | 0.00 | 66 | 1007.2 |
| 20260505052304 | 56 | 203 | 1.7 | 4.3 | 0.00 | 0.00 | 0.00 | 66 | 1007.2 |
| 20260505051304 | 56 | 186 | 1.7 | 4.3 | 0.00 | 0.00 | 0.00 | 65 | 1007.2 |
| 20260505040304 | 57 | 161 | 3.5 | 7.8 | 0.00 | 0.00 | 0.00 | 60 | 1007.3 |
| 20260505034804 | 58 | 164 | 3.5 | 7.0 | 0.00 | 0.00 | 0.00 | 59 | 1007.2 |
| 20260505033304 | 59 | 198 | 2.6 | 6.1 | 0.00 | 0.00 | 0.00 | 58 | 1007.1 |
| 20260505030805 | 59 | 154 | 2.6 | 7.8 | 0.00 | 0.00 | 0.00 | 57 | 1007.1 |
| 20260505030304 | 59 | 210 | 2.6 | 7.8 | 0.00 | 0.00 | 0.00 | 55 | 1007.1 |
| 20260505025804 | 59 | 167 | 3.5 | 7.0 | 0.00 | 0.00 | 0.00 | 55 | 1007.1 |
| 20260505025305 | 59 | 146 | 2.6 | 8.7 | 0.00 | 0.00 | 0.00 | 54 | 1007.1 |
| 20260505024804 | 60 | 179 | 4.3 | 17.4 | 0.00 | 0.00 | 0.00 | 54 | 1007.1 |
| 20260505023304 | 60 | 159 | 4.3 | 8.7 | 0.00 | 0.00 | 0.00 | 52 | 1007.1 |
| 20260505022804 | 60 | 186 | 2.6 | 13.0 | 0.00 | 0.00 | 0.00 | 52 | 1007.1 |
| 20260505022304 | 60 | 153 | 3.5 | 13.0 | 0.00 | 0.00 | 0.00 | 52 | 1007.2 |
| 20260505021803 | 60 | 173 | 4.3 | 10.4 | 0.00 | 0.00 | 0.00 | 52 | 1007.2 |
| 20260505021305 | 60 | 161 | 4.3 | 10.4 | 0.00 | 0.00 | 0.00 | 51 | 1007.2 |
| 20260505015803 | 61 | 194 | 3.5 | 8.7 | 0.00 | 0.00 | 0.00 | 50 | 1007.0 |
| 20260505015304 | 61 | 169 | 3.5 | 10.4 | 0.00 | 0.00 | 0.00 | 49 | 1006.9 |
| 20260505014804 | 62 | 175 | 2.6 | 12.2 | 0.00 | 0.00 | 0.00 | 49 | 1007.0 |
| 20260505014304 | 62 | 180 | 5.2 | 10.4 | 0.00 | 0.00 | 0.00 | 49 | 1007.0 |
| 20260505013804 | 62 | 202 | 6.1 | 15.6 | 0.00 | 0.00 | 0.00 | 49 | 1006.9 |
| 20260505013304 | 62 | 182 | 4.3 | 12.2 | 0.00 | 0.00 | 0.00 | 49 | 1006.8 |
| 20260505012305 | 62 | 155 | 3.5 | 12.2 | 0.00 | 0.00 | 0.00 | 49 | 1006.8 |
| 20260505011304 | 63 | 173 | 3.5 | 7.8 | 0.00 | 0.00 | 0.00 | 48 | 1006.5 |
| 20260505010305 | 63 | 149 | 3.5 | 7.0 | 0.00 | 0.00 | 0.00 | 47 | 1006.3 |
| 20260505005304 | 63 | 167 | 2.6 | 10.4 | 0.00 | 0.00 | 0.00 | 47 | 1006.1 |
| 20260505004804 | 64 | 155 | 4.3 | 10.4 | 0.00 | 0.00 | 0.00 | 47 | 1006.0 |
| 20260505004304 | 64 | 178 | 2.6 | 13.0 | 0.00 | 0.00 | 0.00 | 46 | 1005.9 |
| 20260505002304 | 64 | 146 | 2.6 | 7.0 | 0.00 | 0.00 | 0.00 | 45 | 1005.3 |
| 20260505001804 | 65 | 231 | 2.6 | 13.0 | 0.00 | 0.00 | 0.00 | 45 | 1005.2 |
| 20260505000304 | 65 | 161 | 2.6 | 12.2 | 0.00 | 0.00 | 0.00 | 45 | 1004.9 |
| 20260504234804 | 66 | 175 | 7.8 | 15.6 | 0.00 | 0.00 | 0.00 | 43 | 1004.5 |
| 20260504234304 | 67 | 188 | 5.2 | 12.2 | 0.00 | 0.00 | 0.00 | 42 | 1004.4 |
| 20260504233804 | 67 | 153 | 2.6 | 10.4 | 0.00 | 0.00 | 0.00 | 41 | 1004.3 |
| 20260504231804 | 68 | 185 | 4.3 | 15.6 | 0.00 | 0.00 | 0.00 | 39 | 1004.0 |
| 20260504231304 | 68 | 176 | 8.7 | 20.0 | 0.00 | 0.00 | 0.00 | 38 | 1003.9 |
| 20260504230304 | 69 | 163 | 4.3 | 8.7 | 0.00 | 0.00 | 0.00 | 37 | 1003.6 |
| 20260504225304 | 70 | 154 | 4.3 | 10.4 | 0.00 | 0.00 | 0.00 | 34 | 1003.3 |
| 20260504224804 | 71 | 170 | 1.7 | 7.8 | 0.00 | 0.00 | 0.00 | 33 | 1003.3 |
| 20260504224303 | 71 | 147 | 1.7 | 6.1 | 0.00 | 0.00 | 0.00 | 34 | 1003.2 |
| 20260504220804 | 72 | 170 | 1.7 | 5.2 | 0.00 | 0.00 | 0.00 | 32 | 1003.1 |
| 20260504215305 | 72 | 299 | 3.5 | 7.8 | 0.00 | 0.00 | 0.00 | 34 | 1003.1 |
| 20260504213804 | 72 | 126 | 2.6 | 7.0 | 0.00 | 0.00 | 0.00 | 32 | 1003.1 |
| 20260504213304 | 72 | 237 | 1.7 | 6.1 | 0.00 | 0.00 | 0.00 | 31 | 1003.1 |
| 20260504212803 | 73 | 209 | 1.7 | 7.8 | 0.00 | 0.00 | 0.00 | 32 | 1003.1 |
| 20260504211804 | 73 | 188 | 4.3 | 12.2 | 0.00 | 0.00 | 0.00 | 32 | 1003.2 |
| 20260504211304 | 74 | 192 | 3.5 | 7.8 | 0.00 | 0.00 | 0.00 | 30 | 1003.2 |
| 20260504210804 | 74 | 150 | 2.6 | 7.8 | 0.00 | 0.00 | 0.00 | 31 | 1003.2 |
| 20260504210304 | 74 | 266 | 2.6 | 6.1 | 0.00 | 0.00 | 0.00 | 31 | 1003.2 |
| 20260504205804 | 74 | 222 | 1.7 | 7.8 | 0.00 | 0.00 | 0.00 | 30 | 1003.2 |
| 20260504204804 | 74 | 249 | 4.3 | 13.0 | 0.00 | 0.00 | 0.00 | 30 | 1003.3 |
| 20260504204304 | 74 | 254 | 1.7 | 5.2 | 0.00 | 0.00 | 0.00 | 31 | 1003.2 |
| 20260504203804 | 74 | 205 | 3.5 | 8.7 | 0.00 | 0.00 | 0.00 | 30 | 1003.2 |
| 20260504203303 | 74 | 207 | 4.3 | 10.4 | 0.00 | 0.00 | 0.00 | 32 | 1003.2 |
| 20260504202305 | 74 | 194 | 2.6 | 8.7 | 0.00 | 0.00 | 0.00 | 29 | 1003.3 |
| 20260504201804 | 75 | 170 | 4.3 | 10.4 | 0.00 | 0.00 | 0.00 | 28 | 1003.3 |
| 20260504201304 | 75 | 210 | 2.6 | 10.4 | 0.00 | 0.00 | 0.00 | 30 | 1003.3 |
| 20260504200804 | 75 | 191 | 5.2 | 13.9 | 0.00 | 0.00 | 0.00 | 30 | 1003.3 |
| 20260504195804 | 74 | 131 | 2.6 | 6.1 | 0.00 | 0.00 | 0.00 | 30 | 1003.4 |
| 20260504192804 | 74 | 247 | 4.3 | 14.8 | 0.00 | 0.00 | 0.00 | 29 | 1003.4 |
| 20260504192304 | 74 | 192 | 7.0 | 15.6 | 0.00 | 0.00 | 0.00 | 29 | 1003.4 |
| 20260504190804 | 75 | 175 | 2.6 | 14.8 | 0.00 | 0.00 | 0.00 | 29 | 1003.6 |
| 20260504185305 | 75 | 184 | 2.6 | 10.4 | 0.00 | 0.00 | 0.00 | 33 | 1003.8 |
| 20260504183304 | 74 | 179 | 4.3 | 13.0 | 0.00 | 0.00 | 0.00 | 30 | 1003.8 |
| 20260504182304 | 75 | 233 | 4.3 | 11.3 | 0.00 | 0.00 | 0.00 | 28 | 1003.8 |
| 20260504181804 | 74 | 176 | 2.6 | 6.1 | 0.00 | 0.00 | 0.00 | 30 | 1003.9 |
| 20260504180806 | 74 | 218 | 4.3 | 13.9 | 0.00 | 0.00 | 0.00 | 30 | 1004.1 |
| 20260504180306 | 74 | 192 | 4.3 | 10.4 | 0.00 | 0.00 | 0.00 | 32 | 1003.9 |
| 20260504175806 | 74 | 129 | 3.5 | 8.7 | 0.00 | 0.00 | 0.00 | 32 | 1004.1 |
| 20260504175306 | 73 | 229 | 2.6 | 10.4 | 0.00 | 0.00 | 0.00 | 33 | 1004.3 |
| 20260504172305 | 73 | 203 | 2.6 | 11.3 | 0.00 | 0.00 | 0.00 | 32 | 1004.5 |
| 20260504171806 | 72 | 199 | 2.6 | 10.4 | 0.00 | 0.00 | 0.00 | 35 | 1004.4 |
| 20260504170805 | 71 | 202 | 4.3 | 10.4 | 0.00 | 0.00 | 0.00 | 33 | 1004.4 |
| 20260504170305 | 72 | 305 | 9.6 | 24.3 | 0.00 | 0.00 | 0.00 | 35 | 1004.5 |
| 20260504140805 | 65 | 137 | 1.7 | 5.2 | 0.00 | 0.00 | 0.00 | 40 | 1006.2 |
| 20260504110306 | 48 | 158 | 1.7 | 2.6 | 0.00 | 0.00 | 0.00 | 60 | 1007.5 |
| 20260504100306 | 48 | 134 | 0.9 | 1.7 | 0.00 | 0.00 | 0.00 | 60 | 1007.6 |
| 20260504081806 | 46 | 158 | 0.9 | 1.7 | 0.00 | 0.00 | 0.00 | 63 | 1007.3 |